Regional Weather Roundup
Issued by NWS

Home | Current Version | Previous Version | Text Only | Print | Product List | Glossary On
Versions: 1 2 3 4 5 6 7 8 9 10 11 12 13 14 15 16 17 18 19 20 21 22 23 24 25 26 27 28 29 30 31 32 33 34 35 36 37 38 39 40 41 42 43 44 45 46 47 48 49 50
000
ASUS45 KABQ 231910
RWRNM
NEW MEXICO REGIONAL WEATHER ROUNDUP
NATIONAL WEATHER SERVICE ALBUQUERQUE NM
100 PM MDT MON OCT 23 2017

NOTE: "FAIR" MEANS FEW OR NO CLOUDS BELOW 12,000 FEET AGL WITH NO
       SIGNIFICANT WEATHER OR OBSTRUCTIONS TO VISION.

      THIS PRODUCT IS RELEASED AS TWO VERSIONS.  ONE VERSION NEAR
      THE TOP OF THE HOUR CONTAINING PRELIMINARY DATA FROM ALBUQUERQUE
      AND OTHER STATIONS.  A FINAL VERSION WITH ADDITIONAL DATA IS
      ISSUED ABOUT 10 MINUTES AFTER THE HOUR.

NMZ501-503-504-510>518-232000-
NORTHWEST PLATEAU/NORTHCENTRAL MOUNTAINS

CITY           SKY/WX    TMP DP  RH WIND       PRES   REMARKS
FARMINGTON     FAIR      68  23  18 W23G29    30.39F
LOS ALAMOS     FAIR      60  23  23 E7        30.45F
SANTA FE       FAIR      66  25  21 NW13      30.39F
TAOS           FAIR      62  24  23 CALM      30.46F
ANGEL FIRE     FAIR      61  25  25 W12       30.47F

$$
NMZ402-403-502-505>509-232000-
WESTCENTRAL MOUNTAINS/SOUTHWEST MOUNTAINS

CITY           SKY/WX    TMP DP  RH WIND       PRES   REMARKS
GALLUP         FAIR      69  23  17 VRB5      30.47F
GRANTS         FAIR      71  23  16 N17       30.48F
SILVER CITY    PTSUNNY   80  10   7 SW5       30.34F

$$
NMZ407-409-411-412-232000-
SOUTHERN DESERTS

CITY           SKY/WX    TMP DP  RH WIND       PRES   REMARKS
DEMING         FAIR      81  23  11 SW9       30.29F
LAS CRUCES     FAIR      79  21  11 N8        30.30F
HOLLOMAN AFB   FAIR      80  25  13 N20       30.27F
ALAMOGORDO     FAIR      77  27  15 N20G25    30.27F
T OR C         FAIR      75  25  15 E9        30.32F

$$
NMZ519>523-232000-
CENTRAL VALLEYS/CENTRAL HIGHLANDS

CITY           SKY/WX    TMP DP  RH WIND       PRES   REMARKS
ALBUQUERQUE    FAIR      71  23  16 N23G30    30.37F
DOUBLE EAGLE   MOSUNNY   70  27  19 NW14      30.41F
MORIARTY ARPT  FAIR      74  27  17 NW22G28   30.37S
CLINES CORNERS FAIR      67  25  20 NW18G28   30.41
BELEN          FAIR      70  26  18 N8        30.37F
SOCORRO        FAIR      75  23  14 N13G20    30.32F

$$
NMZ524>526-539-540-232000-
SOUTHCENTRAL MOUNTAINS

CITY           SKY/WX    TMP DP  RH WIND       PRES   REMARKS
RUIDOSO        FAIR      70  25  18 NW18G26   30.41F

$$
NMZ527>531-232000-
NORTHEAST HIGHLANDS/NORTHEAST PLAINS

CITY           SKY/WX    TMP DP  RH WIND       PRES   REMARKS
LAS VEGAS      FAIR      71  27  19 E10       30.37F
RATON          FAIR      67  29  24 NE12      30.34F
CLAYTON        FAIR      58  34  40 N18       30.36F

$$
NMZ532>537-232000-
EASTCENTRAL PLAINS

CITY           SKY/WX    TMP DP  RH WIND       PRES   REMARKS
SANTA ROSA     FAIR      74  31  19 E12G20    30.29S
TUCUMCARI      LGT RAIN  73  34  23 E21G30    30.28R
CANNON AFB     NOT AVBL
CLOVIS AIRPORT   N/A     71  36  27 E24       30.27S

$$
NMZ028-029-538-232000-
SOUTHEAST PLAINS

CITY           SKY/WX    TMP DP  RH WIND       PRES   REMARKS
ROSWELL        FAIR      81  36  19 N16       30.20F
ARTESIA        FAIR      79  36  21 N12       30.19F
CARLSBAD       FAIR      80  35  19 VRB6      30.16F
HOBBS          SUNNY     82  32  16 N10       30.16F


$$



USA.gov is the U.S. government's official web portal to all federal, state and local government web resources and services.